QPF
0.02 0.01 0.01 0.02 0.02 0.03 0.03 0.05 0.07 0.07 0.06 0.06 0.05 0.04 0.05 0.05 0.05 0.06 0.07 0.07 0.07 0.09 0.11 0.13 0.17 0.20 0.24 0.23 0.19 0.16 0.14 0.13 0.12 0.11 0.08 0.07 0.06 0.05 0.04 0.02 0.01 0.01 0.00
0.01 0.02 0.02 0.01 0.02 0.03 0.04 0.03 0.04 0.04 0.05 0.05 0.04 0.03 0.04 0.03 0.03 0.03 0.05 0.05 0.06 0.06 0.06 0.08 0.09 0.11 0.12 0.13 0.13 0.12 0.11 0.10 0.08 0.08 0.07 0.05 0.04 0.03 0.02 0.01 0.01 0.00 0.00
0.01 0.01 0.02 0.02 0.02 0.04 0.04 0.03 0.03 0.04 0.04 0.04 0.03 0.03 0.03 0.02 0.02 0.02 0.02 0.02 0.03 0.04 0.04 0.04 0.05 0.05 0.05 0.05 0.06 0.06 0.05 0.05 0.04 0.04 0.03 0.03 0.02 0.02 0.01 0.01 0.00 0.00 0.00
0.01 0.01 0.02 0.02 0.02 0.03 0.04 0.05 0.06 0.05 0.03 0.02 0.03 0.02 0.02 0.02 0.02 0.02 0.02 0.01 0.01 0.01 0.01 0.01 0.02 0.02 0.02 0.02 0.02 0.02 0.02 0.02 0.02 0.02 0.02 0.01 0.01 0.01 0.01 0.01 0.01 0.01 0.00
0.01 0.02 0.02 0.03 0.02 0.03 0.04 0.05 0.05 0.05 0.04 0.02 0.02 0.02 0.01 0.01 0.01 0.01 0.00 0.00 0.01 0.00 0.00 0.00 0.00 0.00 0.00 0.01 0.01 0.01 0.01 0.01 0.01 0.01 0.01 0.01 0.01 0.01 0.01 0.00 0.00 0.00 0.01
0.01 0.01 0.02 0.02 0.02 0.03 0.03 0.03 0.04 0.04 0.04 0.04 0.02 0.01 0.01 0.00 0.00 0.00 0.00 0.00 0.00 0.00 0.00 0.00 0.00 0.00 0.00 0.00 0.00 0.00 0.00 0.01 0.01 0.01 0.01 0.01 0.01 0.00 0.00 0.00 0.00 0.00 0.01
0.01 0.01 0.02 0.02 0.02 0.02 0.03 0.03 0.03 0.03 0.03 0.03 0.02 0.01 0.01 0.00 0.00 0.00 0.00 0.00 0.00 0.00 0.00 0.00 0.00 0.00 0.00 0.00 0.00 0.00 0.00 0.00 0.00 0.00 0.00 0.01 0.00 0.00 0.00 0.01 0.01 0.01 0.01
0.01 0.02 0.02 0.02 0.02 0.03 0.02 0.02 0.03 0.02 0.02 0.02 0.01 0.01 0.01 0.00 0.00 0.00 0.00 0.00 0.00 0.00 0.00 0.00 0.00 0.00 0.00 0.00 0.00 0.00 0.00 0.00 0.00 0.00 0.01 0.01 0.00 0.00 0.00 0.00 0.01 0.01 0.02
0.02 0.03 0.03 0.02 0.02 0.03 0.02 0.02 0.02 0.02 0.02 0.02 0.02 0.01 0.01 0.00 0.00 0.00 0.00 0.00 0.00 0.00 0.00 0.00 0.00 0.00 0.00 0.00 0.00 0.00 0.00 0.00 0.00 0.00 0.00 0.00 0.00 0.00 0.00 0.01 0.01 0.02 0.02
0.02 0.02 0.03 0.03 0.03 0.02 0.02 0.02 0.02 0.02 0.02 0.02 0.02 0.01 0.01 0.00 0.00 0.00 0.00 0.01 0.01 0.00 0.00 0.00 0.00 0.00 0.00 0.00 0.01 0.01 0.01 0.00 0.00 0.00 0.00 0.00 0.00 0.00 0.00 0.01 0.02 0.02 0.03
0.03 0.03 0.03 0.03 0.02 0.02 0.02 0.02 0.02 0.02 0.02 0.02 0.02 0.01 0.00 0.00 0.00 0.00 0.00 0.00 0.00 0.00 0.00 0.00 0.00 0.00 0.00 0.00 0.00 0.01 0.00 0.00 0.00 0.00 0.01 0.01 0.01 0.01 0.01 0.01 0.01 0.01 0.02
0.03 0.03 0.04 0.03 0.01 0.01 0.02 0.02 0.02 0.02 0.02 0.02 0.02 0.01 0.01 0.00 0.00 0.00 0.00 0.00 0.00 0.00 0.00 0.00 0.00 0.00 0.00 0.00 0.00 0.00 0.00 0.00 0.00 0.00 0.00 0.00 0.00 0.01 0.01 0.00 0.00 0.00 0.02
0.04 0.04 0.03 0.03 0.02 0.02 0.03 0.03 0.02 0.02 0.02 0.02 0.02 0.01 0.01 0.00 0.00 0.00 0.00 0.00 0.00 0.00 0.00 0.00 0.00 0.00 0.00 0.00 0.00 0.00 0.00 0.00 0.00 0.00 0.00 0.01 0.00 0.00 0.00 0.00 0.00 0.01 0.00
0.03 0.03 0.03 0.03 0.02 0.02 0.02 0.02 0.02 0.02 0.01 0.01 0.00 0.00 0.00 0.00 0.00 0.00 0.00 0.00 0.00 0.00 0.00 0.00 0.00 0.00 0.00 0.00 0.00 0.00 0.00 0.00 0.00 0.00 0.00 0.00 0.00 0.00 0.00 0.00 0.00 0.01 0.01
0.02 0.02 0.02 0.02 0.01 0.01 0.01 0.01 0.02 0.01 0.01 0.01 0.01 0.00 0.00 0.00 0.00 0.00 0.00 0.00 0.00 0.00 0.00 0.00 0.00 0.00 0.00 0.00 0.00 0.00 0.00 0.00 0.00 0.00 0.00 0.00 0.01 0.01 0.00 0.00 0.00 0.01 0.02
0.02 0.02 0.01 0.01 0.01 0.01 0.00 0.00 0.00 0.00 0.00 0.00 0.00 0.00 0.00 0.00 0.00 0.00 0.00 0.00 0.00 0.00 0.00 0.00 0.00 0.00 0.00 0.00 0.00 0.00 0.00 0.00 0.00 0.00 0.00 0.00 0.00 0.00 0.00 0.00 0.00 0.01 0.02
0.02 0.01 0.00 0.00 0.00 0.00 0.00 0.01 0.00 0.00 0.00 0.00 0.00 0.00 0.00 0.00 0.00 0.00 0.00 0.00 0.00 0.00 0.00 0.00 0.00 0.00 0.00 0.00 0.00 0.00 0.00 0.00 0.00 0.00 0.00 0.00 0.00 0.00 0.00 0.00 0.00 0.00 0.01
0.01 0.00 0.00 0.00 0.00 0.00 0.00 0.00 0.00 0.00 0.00 0.00 0.00 0.00 0.00 0.00 0.00 0.00 0.00 0.00 0.00 0.00 0.00 0.00 0.00 0.00 0.00 0.00 0.00 0.00 0.00 0.00 0.00 0.00 0.00 0.00 0.00 0.00 0.00 0.00 0.00 0.00 0.00
0.00 0.00 0.00 0.00 0.00 0.00 0.00 0.00 0.00 0.00 0.00 0.00 0.00 0.00 0.00 0.00 0.00 0.00 0.00 0.00 0.00 0.00 0.00 0.00 0.00 0.00 0.00 0.00 0.00 0.00 0.00 0.00 0.00 0.00 0.00 0.00 0.00 0.00 0.00 0.00 0.00 0.00 0.00
0.00 0.00 0.00 0.00 0.00 0.00 0.00 0.00 0.00 0.00 0.00 0.00 0.00 0.00 0.00 0.00 0.00 0.00 0.00 0.00 0.00 0.00 0.00 0.00 0.00 0.00 0.00 0.00 0.00 0.00 0.00 0.00 0.00 0.00 0.00 0.00 0.00 0.00 0.00 0.00 0.01 0.01 0.01
0.00 0.00 0.00 0.00 0.00 0.00 0.00 0.00 0.00 0.00 0.00 0.00 0.00 0.00 0.00 0.00 0.00 0.00 0.00 0.00 0.00 0.00 0.00 0.00 0.00 0.00 0.00 0.00 0.00 0.00 0.00 0.00 0.00 0.00 0.00 0.00 0.00 0.00 0.00 0.00 0.00 0.00 0.00
0.00 0.00 0.00 0.00 0.00 0.00 0.00 0.00 0.00 0.00 0.00 0.00 0.00 0.00 0.00 0.00 0.00 0.00 0.00 0.00 0.00 0.00 0.00 0.00 0.00 0.00 0.00 0.00 0.00 0.00 0.00 0.00 0.00 0.00 0.00 0.00 0.00 0.00 0.00 0.00 0.00 0.00 0.00
0.00 0.00 0.00 0.00 0.00 0.00 0.00 0.00 0.00 0.00 0.00 0.00 0.00 0.00 0.00 0.00 0.00 0.00 0.00 0.00 0.00 0.00 0.00 0.00 0.00 0.00 0.00 0.00 0.00 0.00 0.00 0.00 0.00 0.00 0.00 0.00 0.00 0.00 0.00 0.00 0.00 0.00 0.00
0.00 0.00 0.00 0.00 0.00 0.00 0.00 0.00 0.00 0.00 0.00 0.00 0.00 0.00 0.00 0.00 0.00 0.00 0.00 0.00 0.00 0.00 0.00 0.00 0.00 0.00 0.00 0.00 0.00 0.00 0.00 0.00 0.00 0.00 0.00 0.00 0.00 0.00 0.00 0.00 0.00 0.00 0.00
0.00 0.00 0.00 0.00 0.00 0.00 0.00 0.00 0.00 0.00 0.00 0.00 0.00 0.00 0.00 0.00 0.00 0.00 0.00 0.00 0.00 0.00 0.00 0.00 0.00 0.00 0.00 0.00 0.00 0.00 0.00 0.00 0.00 0.00 0.00 0.00 0.00 0.00 0.00 0.00 0.00 0.00 0.00
0.00 0.00 0.00 0.00 0.00 0.00 0.00 0.00 0.00 0.00 0.00 0.00 0.00 0.00 0.00 0.00 0.00 0.00 0.00 0.00 0.00 0.00 0.00 0.00 0.00 0.00 0.00 0.00 0.00 0.00 0.00 0.00 0.00 0.00 0.00 0.00 0.00 0.00 0.00 0.00 0.00 0.00 0.00
MSLP
1016.67 1016.65 1016.69 1016.76 1016.80 1016.77 1016.67 1016.48 1016.21 1015.89 1015.54 1015.19 1014.88 1014.62 1014.44 1014.35 1014.37 1014.51 1014.77 1015.16 1015.66 1016.27 1016.97 1017.74 1018.55 1019.37 1020.18 1020.94 1021.64 1022.27 1022.83 1023.32 1023.74 1024.12 1024.46 1024.77 1025.07 1025.36 1025.62 1025.88 1026.11 1026.32 1026.51
1017.20 1017.18 1017.22 1017.29 1017.34 1017.34 1017.27 1017.12 1016.89 1016.60 1016.30 1015.99 1015.71 1015.48 1015.32 1015.25 1015.28 1015.41 1015.64 1015.99 1016.43 1016.96 1017.56 1018.22 1018.91 1019.61 1020.29 1020.95 1021.56 1022.11 1022.61 1023.06 1023.47 1023.84 1024.18 1024.49 1024.79 1025.06 1025.32 1025.54 1025.73 1025.90 1026.04
1017.72 1017.70 1017.75 1017.83 1017.89 1017.91 1017.87 1017.76 1017.58 1017.36 1017.11 1016.86 1016.64 1016.46 1016.35 1016.31 1016.35 1016.47 1016.68 1016.97 1017.34 1017.78 1018.28 1018.82 1019.39 1019.96 1020.52 1021.06 1021.58 1022.05 1022.49 1022.90 1023.29 1023.65 1024.00 1024.32 1024.61 1024.88 1025.12 1025.31 1025.46 1025.58 1025.66
1018.26 1018.27 1018.33 1018.41 1018.48 1018.52 1018.50 1018.43 1018.31 1018.15 1017.97 1017.79 1017.64 1017.52 1017.45 1017.44 1017.48 1017.60 1017.77 1018.01 1018.32 1018.67 1019.07 1019.50 1019.95 1020.41 1020.87 1021.31 1021.73 1022.13 1022.52 1022.90 1023.27 1023.62 1023.97 1024.30 1024.60 1024.86 1025.08 1025.24 1025.35 1025.42 1025.44
1018.85 1018.89 1018.97 1019.06 1019.13 1019.18 1019.18 1019.14 1019.07 1018.97 1018.86 1018.75 1018.65 1018.59 1018.55 1018.56 1018.61 1018.70 1018.84 1019.03 1019.27 1019.55 1019.87 1020.21 1020.58 1020.95 1021.32 1021.68 1022.04 1022.39 1022.73 1023.08 1023.43 1023.78 1024.12 1024.45 1024.75 1025.00 1025.20 1025.34 1025.41 1025.42 1025.39
1019.51 1019.59 1019.68 1019.77 1019.85 1019.89 1019.91 1019.90 1019.86 1019.81 1019.75 1019.69 1019.65 1019.62 1019.61 1019.62 1019.66 1019.72 1019.83 1019.97 1020.16 1020.38 1020.64 1020.93 1021.24 1021.56 1021.87 1022.19 1022.50 1022.81 1023.12 1023.43 1023.75 1024.08 1024.41 1024.73 1025.01 1025.26 1025.44 1025.55 1025.58 1025.55 1025.46
1020.22 1020.33 1020.43 1020.52 1020.59 1020.64 1020.65 1020.65 1020.64 1020.62 1020.60 1020.59 1020.57 1020.56 1020.56 1020.56 1020.58 1020.62 1020.69 1020.80 1020.95 1021.14 1021.38 1021.64 1021.92 1022.22 1022.51 1022.80 1023.08 1023.36 1023.63 1023.91 1024.20 1024.49 1024.78 1025.07 1025.33 1025.54 1025.70 1025.78 1025.78 1025.71 1025.58
1020.94 1021.07 1021.17 1021.26 1021.31 1021.34 1021.36 1021.37 1021.37 1021.38 1021.39 1021.40 1021.40 1021.40 1021.40 1021.39 1021.39 1021.40 1021.45 1021.53 1021.66 1021.85 1022.07 1022.34 1022.63 1022.92 1023.21 1023.49 1023.75 1023.99 1024.22 1024.45 1024.68 1024.91 1025.15 1025.38 1025.60 1025.77 1025.89 1025.94 1025.92 1025.82 1025.65
1021.60 1021.73 1021.83 1021.90 1021.94 1021.96 1021.97 1021.98 1022.00 1022.04 1022.07 1022.10 1022.13 1022.14 1022.13 1022.11 1022.10 1022.09 1022.12 1022.20 1022.33 1022.51 1022.75 1023.03 1023.33 1023.64 1023.93 1024.20 1024.43 1024.63 1024.81 1024.96 1025.12 1025.28 1025.44 1025.60 1025.75 1025.87 1025.95 1025.97 1025.92 1025.81 1025.63
1022.15 1022.27 1022.35 1022.39 1022.41 1022.42 1022.44 1022.47 1022.51 1022.57 1022.64 1022.71 1022.76 1022.78 1022.78 1022.77 1022.75 1022.74 1022.76 1022.84 1022.97 1023.17 1023.43 1023.72 1024.04 1024.35 1024.63 1024.88 1025.08 1025.22 1025.33 1025.41 1025.48 1025.54 1025.62 1025.70 1025.77 1025.84 1025.87 1025.86 1025.80 1025.67 1025.49
1022.55 1022.63 1022.68 1022.69 1022.70 1022.72 1022.75 1022.80 1022.89 1023.00 1023.11 1023.22 1023.31 1023.37 1023.40 1023.39 1023.38 1023.38 1023.41 1023.48 1023.63 1023.83 1024.09 1024.39 1024.70 1025.00 1025.27 1025.48 1025.63 1025.71 1025.75 1025.74 1025.72 1025.69 1025.68 1025.67 1025.68 1025.69 1025.68 1025.65 1025.57 1025.44 1025.27
1022.77 1022.81 1022.82 1022.83 1022.83 1022.86 1022.92 1023.02 1023.16 1023.33 1023.51 1023.68 1023.83 1023.93 1023.99 1024.02 1024.02 1024.03 1024.07 1024.14 1024.28 1024.48 1024.72 1025.01 1025.30 1025.57 1025.79 1025.96 1026.05 1026.07 1026.03 1025.95 1025.84 1025.74 1025.65 1025.57 1025.52 1025.48 1025.44 1025.39 1025.30 1025.17 1025.00
1022.84 1022.84 1022.83 1022.83 1022.84 1022.90 1023.00 1023.16 1023.37 1023.61 1023.87 1024.11 1024.32 1024.47 1024.58 1024.64 1024.67 1024.69 1024.72 1024.79 1024.91 1025.08 1025.29 1025.53 1025.77 1025.99 1026.17 1026.27 1026.31 1026.27 1026.17 1026.03 1025.87 1025.71 1025.57 1025.45 1025.36 1025.29 1025.22 1025.15 1025.05 1024.93 1024.76
1022.81 1022.79 1022.77 1022.77 1022.80 1022.90 1023.06 1023.28 1023.56 1023.88 1024.20 1024.52 1024.79 1025.00 1025.15 1025.24 1025.29 1025.32 1025.34 1025.38 1025.46 1025.58 1025.73 1025.91 1026.09 1026.25 1026.36 1026.41 1026.40 1026.32 1026.18 1026.01 1025.83 1025.64 1025.48 1025.34 1025.23 1025.14 1025.06 1024.98 1024.88 1024.75 1024.58
1022.74 1022.72 1022.71 1022.73 1022.80 1022.93 1023.14 1023.42 1023.77 1024.15 1024.54 1024.91 1025.23 1025.49 1025.67 1025.79 1025.84 1025.86 1025.85 1025.86 1025.88 1025.94 1026.02 1026.12 1026.23 1026.32 1026.38 1026.38 1026.34 1026.24 1026.10 1025.93 1025.75 1025.57 1025.42 1025.28 1025.17 1025.07 1024.98 1024.89 1024.78 1024.64 1024.46
1022.72 1022.71 1022.72 1022.76 1022.87 1023.04 1023.29 1023.61 1024.00 1024.42 1024.85 1025.26 1025.61 1025.90 1026.10 1026.22 1026.27 1026.26 1026.23 1026.18 1026.14 1026.13 1026.13 1026.16 1026.20 1026.23 1026.24 1026.22 1026.17 1026.08 1025.96 1025.82 1025.67 1025.52 1025.39 1025.27 1025.16 1025.07 1024.97 1024.86 1024.72 1024.57 1024.38
1022.76 1022.79 1022.83 1022.90 1023.03 1023.22 1023.50 1023.84 1024.24 1024.68 1025.12 1025.54 1025.90 1026.19 1026.39 1026.51 1026.54 1026.50 1026.43 1026.33 1026.23 1026.15 1026.09 1026.06 1026.04 1026.03 1026.02 1026.00 1025.96 1025.90 1025.81 1025.72 1025.61 1025.51 1025.40 1025.30 1025.20 1025.09 1024.98 1024.84 1024.68 1024.50 1024.29
1022.89 1022.95 1023.02 1023.12 1023.26 1023.46 1023.74 1024.08 1024.47 1024.89 1025.32 1025.72 1026.07 1026.35 1026.53 1026.63 1026.64 1026.58 1026.47 1026.33 1026.18 1026.05 1025.95 1025.87 1025.82 1025.80 1025.79 1025.78 1025.77 1025.75 1025.72 1025.68 1025.62 1025.55 1025.47 1025.37 1025.26 1025.13 1024.98 1024.81 1024.61 1024.40 1024.16
1023.06 1023.16 1023.25 1023.36 1023.51 1023.70 1023.96 1024.27 1024.63 1025.02 1025.41 1025.78 1026.10 1026.35 1026.52 1026.60 1026.59 1026.51 1026.37 1026.21 1026.04 1025.89 1025.76 1025.67 1025.62 1025.60 1025.61 1025.64 1025.68 1025.71 1025.73 1025.73 1025.71 1025.66 1025.58 1025.47 1025.33 1025.16 1024.97 1024.75 1024.51 1024.25 1023.98
1023.23 1023.35 1023.46 1023.57 1023.71 1023.88 1024.11 1024.38 1024.69 1025.04 1025.38 1025.72 1026.00 1026.22 1026.37 1026.43 1026.41 1026.33 1026.20 1026.03 1025.86 1025.71 1025.59 1025.52 1025.49 1025.50 1025.56 1025.63 1025.72 1025.80 1025.86 1025.89 1025.89 1025.84 1025.75 1025.61 1025.42 1025.20 1024.95 1024.67 1024.38 1024.08 1023.78
1023.33 1023.47 1023.59 1023.69 1023.81 1023.96 1024.14 1024.37 1024.64 1024.93 1025.24 1025.53 1025.79 1025.99 1026.12 1026.18 1026.17 1026.10 1025.98 1025.83 1025.69 1025.57 1025.48 1025.44 1025.46 1025.52 1025.62 1025.75 1025.89 1026.01 1026.11 1026.16 1026.16 1026.10 1025.97 1025.78 1025.54 1025.26 1024.94 1024.61 1024.27 1023.93 1023.61
1023.33 1023.47 1023.59 1023.69 1023.79 1023.91 1024.06 1024.25 1024.48 1024.73 1025.00 1025.26 1025.49 1025.68 1025.81 1025.88 1025.89 1025.84 1025.75 1025.64 1025.54 1025.46 1025.42 1025.43 1025.50 1025.62 1025.78 1025.96 1026.14 1026.31 1026.43 1026.49 1026.48 1026.40 1026.24 1026.00 1025.70 1025.36 1024.98 1024.60 1024.22 1023.85 1023.51
1023.21 1023.35 1023.46 1023.55 1023.63 1023.73 1023.86 1024.02 1024.22 1024.45 1024.69 1024.94 1025.16 1025.34 1025.48 1025.56 1025.59 1025.57 1025.52 1025.45 1025.39 1025.36 1025.38 1025.45 1025.57 1025.75 1025.96 1026.19 1026.41 1026.61 1026.75 1026.82 1026.80 1026.70 1026.50 1026.23 1025.88 1025.50 1025.08 1024.66 1024.25 1023.86 1023.51
1022.98 1023.12 1023.22 1023.31 1023.39 1023.48 1023.59 1023.74 1023.92 1024.13 1024.36 1024.59 1024.81 1025.00 1025.14 1025.23 1025.28 1025.29 1025.27 1025.24 1025.22 1025.24 1025.30 1025.41 1025.59 1025.81 1026.07 1026.34 1026.60 1026.82 1026.97 1027.05 1027.04 1026.92 1026.71 1026.42 1026.05 1025.64 1025.21 1024.77 1024.35 1023.96 1023.60
1022.68 1022.82 1022.92 1023.01 1023.09 1023.18 1023.29 1023.44 1023.61 1023.81 1024.03 1024.25 1024.46 1024.64 1024.79 1024.89 1024.95 1024.97 1024.97 1024.97 1024.98 1025.03 1025.12 1025.27 1025.48 1025.73 1026.02 1026.32 1026.61 1026.85 1027.03 1027.13 1027.12 1027.01 1026.81 1026.51 1026.15 1025.75 1025.32 1024.88 1024.47 1024.07 1023.71
1022.36 1022.50 1022.61 1022.70 1022.78 1022.88 1022.99 1023.13 1023.30 1023.49 1023.70 1023.91 1024.11 1024.29 1024.43 1024.52 1024.58 1024.61 1024.62 1024.63 1024.65 1024.71 1024.82 1024.99 1025.21 1025.48 1025.79 1026.11 1026.41 1026.67 1026.87 1026.98 1026.99 1026.91 1026.72 1026.45 1026.11 1025.73 1025.32 1024.91 1024.50 1024.12 1023.76
Thickness
5602 5602 5602 5602 5602 5603 5603 5603 5603 5604 5606 5608 5608 5609 5611 5612 5615 5616 5618 5620 5620 5620 5621 5622 5621 5622 5621 5620 5619 5617 5614 5611 5604 5595 5591 5587 5583 5581 5577 5575 5574 5571 5567
5592 5592 5592 5592 5592 5593 5593 5593 5594 5595 5596 5597 5598 5599 5601 5602 5604 5606 5608 5609 5610 5610 5611 5611 5611 5611 5610 5609 5608 5607 5604 5601 5597 5589 5583 5579 5575 5573 5570 5567 5567 5566 5562
5583 5583 5583 5582 5582 5582 5582 5583 5584 5585 5586 5587 5588 5588 5590 5591 5593 5594 5596 5597 5598 5600 5600 5601 5600 5600 5600 5598 5598 5596 5594 5592 5588 5583 5577 5572 5569 5566 5562 5561 5559 5556 5555
5574 5574 5573 5572 5572 5572 5572 5573 5574 5575 5575 5576 5577 5578 5579 5581 5582 5584 5585 5586 5587 5588 5588 5589 5589 5588 5588 5587 5586 5585 5584 5581 5577 5575 5570 5566 5561 5557 5556 5555 5552 5550 5548
5565 5564 5563 5562 5562 5562 5562 5562 5563 5564 5565 5566 5567 5567 5568 5569 5570 5573 5575 5576 5576 5576 5576 5575 5574 5573 5572 5574 5576 5574 5573 5572 5570 5566 5562 5559 5554 5551 5550 5548 5546 5544 5540
5556 5555 5554 5553 5553 5553 5552 5552 5553 5554 5554 5555 5556 5557 5557 5556 5555 5559 5563 5565 5565 5565 5565 5564 5563 5562 5560 5559 5558 5558 5558 5559 5558 5557 5553 5548 5543 5542 5539 5539 5538 5537 5533
5546 5546 5545 5545 5544 5544 5544 5544 5544 5545 5545 5545 5546 5546 5545 5542 5544 5547 5550 5554 5555 5554 5554 5555 5555 5552 5553 5551 5547 5545 5544 5542 5542 5544 5543 5539 5535 5532 5530 5530 5526 5526 5523
5538 5538 5537 5537 5536 5536 5535 5535 5535 5536 5536 5537 5537 5537 5536 5533 5533 5537 5540 5544 5544 5543 5543 5543 5543 5542 5541 5541 5542 5539 5537 5533 5532 5532 5530 5527 5525 5521 5520 5519 5517 5516 5515
5531 5530 5529 5529 5529 5528 5527 5527 5527 5527 5528 5528 5529 5529 5528 5525 5524 5528 5532 5535 5535 5534 5534 5532 5533 5531 5527 5528 5532 5531 5528 5524 5521 5519 5517 5515 5512 5511 5509 5512 5513 5513 5511
5524 5523 5522 5523 5522 5521 5520 5520 5520 5520 5521 5522 5521 5520 5520 5518 5516 5520 5523 5530 5528 5528 5526 5523 5519 5519 5518 5519 5523 5523 5521 5519 5518 5515 5511 5509 5508 5506 5503 5503 5506 5506 5506
5518 5517 5517 5517 5516 5515 5514 5514 5514 5515 5514 5514 5514 5513 5512 5511 5510 5512 5515 5521 5524 5524 5523 5521 5514 5510 5510 5510 5512 5513 5509 5509 5512 5512 5510 5509 5506 5504 5502 5500 5499 5499 5499
5513 5513 5512 5512 5513 5511 5510 5509 5510 5510 5510 5510 5509 5509 5508 5506 5504 5504 5506 5508 5511 5515 5515 5514 5508 5504 5504 5504 5505 5502 5502 5503 5509 5509 5507 5505 5503 5501 5499 5497 5494 5493 5492
5510 5509 5509 5508 5508 5508 5507 5507 5507 5508 5510 5510 5509 5509 5507 5505 5501 5499 5501 5502 5503 5506 5505 5501 5500 5500 5499 5501 5498 5498 5500 5503 5504 5503 5501 5500 5499 5496 5494 5494 5493 5492 5491
5508 5507 5506 5506 5506 5505 5506 5507 5507 5508 5508 5508 5508 5507 5505 5504 5503 5502 5503 5503 5500 5503 5503 5499 5497 5497 5498 5496 5496 5498 5499 5498 5497 5498 5497 5496 5495 5494 5494 5493 5493 5492 5493
5506 5506 5506 5506 5506 5504 5503 5500 5502 5500 5500 5502 5504 5504 5504 5501 5492 5489 5493 5499 5500 5500 5500 5503 5503 5503 5502 5500 5499 5497 5496 5496 5495 5494 5494 5493 5493 5493 5492 5491 5490 5491 5491
5507 5506 5507 5507 5505 5505 5503 5499 5491 5493 5492 5492 5492 5494 5493 5490 5488 5488 5489 5490 5492 5493 5498 5503 5502 5502 5500 5499 5498 5497 5495 5494 5492 5491 5491 5491 5491 5490 5490 5490 5490 5489 5489
5508 5508 5509 5508 5507 5506 5505 5504 5500 5492 5489 5489 5489 5490 5489 5488 5488 5488 5489 5490 5492 5493 5501 5502 5500 5499 5499 5498 5497 5496 5494 5491 5489 5489 5489 5489 5489 5489 5489 5489 5489 5488 5488
5509 5506 5508 5508 5508 5508 5507 5507 5506 5505 5502 5498 5492 5490 5490 5490 5490 5490 5491 5492 5500 5500 5503 5502 5501 5499 5498 5497 5496 5494 5493 5491 5490 5489 5488 5487 5487 5487 5488 5488 5488 5487 5487
5512 5511 5511 5510 5511 5510 5510 5510 5510 5508 5507 5506 5503 5498 5494 5494 5493 5494 5495 5502 5507 5506 5505 5503 5502 5500 5499 5497 5495 5494 5492 5491 5489 5488 5488 5486 5487 5487 5487 5488 5488 5485 5484
5512 5507 5510 5513 5513 5512 5513 5513 5513 5513 5512 5511 5510 5509 5506 5505 5507 5506 5505 5507 5508 5507 5506 5505 5503 5501 5500 5499 5498 5496 5495 5493 5491 5491 5490 5488 5488 5487 5488 5487 5488 5488 5488
5517 5513 5509 5516 5517 5517 5517 5517 5517 5518 5517 5516 5516 5512 5505 5513 5514 5512 5512 5511 5510 5509 5507 5506 5506 5505 5503 5501 5500 5498 5496 5495 5493 5492 5491 5490 5489 5489 5488 5489 5489 5489 5489
5523 5522 5521 5523 5521 5521 5521 5522 5522 5522 5522 5521 5521 5518 5510 5515 5519 5518 5517 5514 5513 5511 5510 5508 5509 5508 5505 5503 5501 5500 5499 5497 5495 5492 5491 5491 5490 5490 5490 5490 5490 5490 5489
5528 5528 5527 5527 5527 5522 5524 5527 5527 5527 5527 5528 5528 5527 5524 5524 5523 5522 5521 5519 5517 5515 5513 5511 5510 5511 5508 5504 5501 5499 5500 5498 5495 5492 5490 5491 5491 5491 5491 5490 5490 5490 5490
5535 5534 5534 5533 5532 5532 5532 5532 5533 5533 5533 5533 5532 5532 5531 5528 5528 5526 5525 5524 5522 5520 5518 5516 5514 5513 5509 5507 5504 5503 5501 5497 5494 5493 5490 5490 5490 5491 5491 5490 5491 5491 5490
5542 5540 5540 5539 5539 5539 5539 5539 5539 5539 5539 5538 5538 5538 5537 5536 5534 5533 5531 5529 5527 5526 5524 5521 5519 5517 5514 5512 5509 5507 5503 5498 5495 5493 5491 5491 5491 5491 5491 5491 5491 5491 5490
5549 5548 5547 5546 5546 5546 5546 5546 5546 5545 5545 5545 5545 5544 5543 5542 5541 5540 5538 5536 5534 5532 5530 5528 5525 5523 5519 5517 5514 5510 5506 5502 5498 5495 5492 5492 5493 5493 5492 5492 5492 5491 5491